TimeEDT,TemperatureF,Dew PointF,Humidity,Sea Level PressureIn,VisibilityMPH,Wind Direction,Wind SpeedMPH,Gust SpeedMPH,PrecipitationIn,Events,Conditions,WindDirDegrees,DateUTC
12:51 AM,41.0,33.8,76,-9999,120.0,West,18.4,-,N/A,,Mostly Cloudy,260,2012-10-18 04:51:00
1:52 AM,39.2,33.8,81,-9999,120.0,WSW,19.6,-,N/A,,Mostly Cloudy,250,2012-10-18 05:52:00
2:47 AM,39.2,32.0,75,-9999,110.0,WSW,19.6,-,N/A,,Mostly Cloudy,250,2012-10-18 06:47:00
3:49 AM,39.2,32.0,75,-9999,110.0,SW,16.1,-,N/A,,Mostly Cloudy,230,2012-10-18 07:49:00
4:51 AM,41.0,23.0,49,-9999,110.0,SW,16.1,-,N/A,,Mostly Cloudy,230,2012-10-18 08:51:00
5:47 AM,41.0,32.0,70,-9999,110.0,WSW,20.7,-,N/A,,Mostly Cloudy,240,2012-10-18 09:47:00
6:54 AM,39.2,30.2,70,-9999,110.0,SW,15.0,-,N/A,,Mostly Cloudy,230,2012-10-18 10:54:00
7:51 AM,39.2,32.0,75,-9999,130.0,SSW,11.5,-,N/A,,Mostly Cloudy,200,2012-10-18 11:51:00
8:52 AM,41.0,32.0,70,-9999,120.0,South,15.0,-,N/A,,Mostly Cloudy,190,2012-10-18 12:52:00
9:53 AM,41.0,32.0,70,-9999,120.0,South,23.0,-,N/A,,Mostly Cloudy,170,2012-10-18 13:53:00
10:57 AM,39.2,24.8,56,-9999,120.0,South,25.3,-,N/A,,Mostly Cloudy,170,2012-10-18 14:57:00
11:52 AM,42.8,28.4,57,-9999,120.0,SSE,32.2,-,N/A,,Mostly Cloudy,160,2012-10-18 15:52:00
12:53 PM,41.0,30.2,65,-9999,120.0,SSE,31.1,38.0,N/A,,Mostly Cloudy,160,2012-10-18 16:53:00
1:51 PM,42.8,14.0,31,-9999,110.0,SSE,32.2,35.7,N/A,,Mostly Cloudy,160,2012-10-18 17:51:00
2:50 PM,39.2,19.4,45,-9999,100.0,South,32.2,36.8,N/A,,Mostly Cloudy,170,2012-10-18 18:50:00
4:53 PM,39.2,17.6,42,-9999,100.0,SSE,35.7,41.4,N/A,,Mostly Cloudy,160,2012-10-18 20:53:00
6:55 PM,39.2,1.4,21,-9999,85.0,SSE,28.8,41.4,N/A,,Mostly Cloudy,150,2012-10-18 22:55:00
7:53 PM,39.2,3.2,22,-9999,85.0,SSE,38.0,41.4,N/A,,Scattered Clouds,160,2012-10-18 23:53:00
8:51 PM,39.2,-0.4,19,-9999,90.0,SSE,38.0,47.2,N/A,,Scattered Clouds,160,2012-10-19 00:51:00
9:49 PM,39.2,6.8,26,-9999,90.0,SSE,38.0,42.6,N/A,,Scattered Clouds,160,2012-10-19 01:49:00
10:53 PM,37.4,14.0,38,-9999,90.0,South,38.0,-,N/A,,Scattered Clouds,170,2012-10-19 02:53:00
11:50 PM,37.4,8.6,30,-9999,85.0,SSE,36.8,-,N/A,,Scattered Clouds,160,2012-10-19 03:50:00